Regional Weather Roundup
Issued by NWS

Home | Current Version | Previous Version | Graphics & Text | Print | Product List | Glossary Off
Versions: 1 2 3 4 5 6 7 8 9 10 11 12 13 14 15 16 17 18 19 20 21 22 23 24 25 26 27 28 29 30 31 32 33 34 35 36 37 38 39 40 41 42 43 44 45 46 47 48 49 50

761
ASUS43 KDMX 200206
RWRIA

WEATHER ROUNDUP FOR IOWA
NATIONAL WEATHER SERVICE DES MOINES IA
900 PM CDT THU OCT 19 2017

NOTE: "FAIR" INDICATES FEW OR NO CLOUDS BELOW 12,000 FEET WITH NO
SIGNIFICANT WEATHER AND/OR OBSTRUCTIONS TO VISIBILITY.

* - THESE STATIONS ARE NOT NWS STATIONS...THUS NOT UNDER NWS
QUALITY CONTROL.  THEY ALSO DO NOT REPORT WEATHER SUCH
AS PRECIPITATION OR FOG.

IAZ001>003-012>014-020>022-031>034-043>046-200300-
   NORTHWEST IOWA

CITY           SKY/WX    TMP DP  RH WIND       PRES   REMARKS
CARROLL *      CLEAR     75  72  88 S6        29.99S
CHEROKEE *     CLEAR     58  52  80 S6        29.95F
DENISON *      CLEAR     66  52  59 S14G20    29.98S
LE MARS *      CLEAR     63  52  67 S8        29.92F
ORANGE CITY *  CLEAR     63  54  72 S5        29.93F
SHELDON *      CLEAR     63  50  63 S9        29.91F
SIOUX CITY     CLEAR     57  52  83 SE7       29.93F
SPENCER        CLEAR     56  49  77 S7        29.95F
STORM LAKE *   CLEAR     61  52  72 S9        29.97S
$$

IAZ055>058-069>071-079>083-090>094-200300-
   SOUTHWEST IOWA

CITY           SKY/WX    TMP DP  RH WIND       PRES   REMARKS
ATLANTIC *     CLEAR     64  52  63 S9        30.00S
AUDUBON *      CLEAR     57  54  88 S3        30.01S
CLARINDA *       N/A     59  52  77 S5        30.04S
COUNCIL BLFS * CLEAR     66  54  63 S8        29.98S
CRESTON *      CLEAR     64  52  63 S10       30.04F
HARLAN  *      CLEAR     63  52  67 S6        30.02S
LAMONI         CLEAR     65  52  62 S12       30.05S
RED OAK *      CLEAR     63  52  67 S5        30.00S
SHENANDOAH *   CLEAR     63  52  67 SE6       30.00F
$$

IAZ047>049-059>061-072>074-084-200300-
   CENTRAL IOWA

CITY           SKY/WX    TMP DP  RH WIND       PRES   REMARKS
AMES           CLEAR     58  54  86 SE6       30.02S
ANKENY *       CLEAR     61  54  77 CALM      30.04S
BOONE *        CLEAR     57  52  82 S6        30.01S
CHARITON *     CLEAR     61  52  72 SE7       30.05S
DES MOINES     CLEAR     64  53  67 SE9       30.02F
KNOXVILLE *    CLEAR     63  54  72 SE6       30.03F
MARSHALLTOWN   CLEAR     60  52  74 SE7       30.03F
NEWTON *       CLEAR     59  54  82 S7        30.05S
PELLA *        CLEAR     62  54  74 SE5       30.06S
PERRY *          N/A     58  53  85 SE7       30.01S
$$

IAZ004>006-015-016-023>025-035-036-200300-
   NORTH CENTRAL IOWA

CITY           SKY/WX    TMP DP  RH WIND       PRES   REMARKS
ALGONA *       CLEAR     64  52  63 S13G18    29.97F
CLARION *      CLEAR     61  54  77 SE13      30.00S
ESTHERVILLE    CLEAR     59  48  67 S10       29.95F
FORT DODGE *   CLEAR     65  53  65 S9        29.99F
MASON CITY     CLEAR     57  44  62 S12       30.02S
FOREST CITY *    N/A     55  45  67 S7        30.00S
WEBSTER CITY * CLEAR     63  52  67 S7G14     29.99S
IOWA FALLS *     N/A     59  52  77 SE7       30.04S
$$

IAZ007>011-017>019-026>030-037>042-050>054-066-200300-
   NORTHEAST IOWA

CITY           SKY/WX    TMP DP  RH WIND       PRES   REMARKS
CEDAR RAPIDS   CLEAR     59  51  75 SE6       30.06F
CHARLES CITY * CLEAR     61  41  48 SE12      30.03S
CLINTON *      CLEAR     60  48  64 SE9       30.11F
DECORAH *      PTCLDY    59  36  41 S12       30.03F
DUBUQUE        PTCLDY    60  39  45 SE10      30.09F
MONTICELLO *   CLOUDY    59  43  55 SE7       30.07F
OELWEIN *      CLEAR     57  45  62 S10       30.06S
WATERLOO       CLEAR     60  44  55 SE10      30.03F
$$

IAZ064-065-067-068-078-200300-
   EAST CENTRAL IOWA

CITY           SKY/WX    TMP DP  RH WIND       PRES   REMARKS
DAVENPORT      CLEAR     60  51  72 SE6       30.12F
IOWA CITY      CLEAR     57  50  77 CALM      30.09S
MUSCATINE *    CLEAR     55  50  82 CALM      30.09S
QUAD CITIES    CLEAR     57  49  74 SE5       30.10S
$$

IAZ062-063-075>077-085>089-095>099-200300-
   SOUTHEAST IOWA

CITY           SKY/WX    TMP DP  RH WIND       PRES   REMARKS
BURLINGTON     CLEAR     61  53  75 S7        30.10S
FAIRFIELD *    CLEAR     61  52  72 S7        30.08R
FORT MADISON * CLEAR     66  52  59 S9        30.10F
KEOKUK *       CLEAR     66  52  59 SE7       30.09F
OSKALOOSA *      N/A     57  52  83 SE8       30.07S
OTTUMWA        CLEAR     62  53  72 S9        30.06F
WASHINGTON *   CLEAR     61  54  77 S9        30.09S
$$

ABBREVIATIONS USED IN REMARKS
   TC - TEMPERATURES IN CELSIUS
  WCI - WIND CHILL INDEX
   HX - HEAT INDEX
  VSB - VISIBILITY
$$





USA.gov is the U.S. government's official web portal to all federal, state and local government web resources and services.